Погода в Ромблоне

Филиппины     12°34′33″N   122°16′13″E
темп.,
°C
ветер,
м/с
пор.,
м/с
влажн.,
%
обл.,
%
осадки,
мм/ч
давл.,
гПа
погр.,
м
4 марта, чт
чт423:00+27всв910790 0.3 1015864
02:00+27всв1010810 0.6 1013766
05:00+27всв1010820 0.4 1013720
08:00+27всв1011790 0.9 1015820
11:00+27св810800 0.1 1015815
14:00+27ссв67770 0.1 1013621
17:00+27св67744 0.0 1012547
20:00+28св88772 0.0 1014898
5 марта, пт
пт523:00+27всв78790 0.1 1015759
02:00+27св89800 0.1 1013734
05:00+27св89800 0.1 1013855
08:00+27св79780 0.3 1015842
11:00+27св89770 0.0 1015861
14:00+27св78740 0.0 1013767
17:00+28св67730 0.0 1012535
20:00+28ссв78750 0.0 1013918
6 марта, сб
сб623:00+27всв810783 0.1 1014946
02:00+27св910812 0.2 1013884
05:00+26св88821 0.3 1012783
08:00+27ссв78811 0.3 1015745
11:00+27св788197 0.1 1015686
14:00+27ссв677875 0.2 1012536
17:00+28св677583 0.0 1012642
20:00+28св897662 0.3 1013819
7 марта, вс
вс723:00+27св898076 0.3 1014863
02:00+27св998055 1.0 1013831
05:00+26св898174 0.1 1013864
08:00+26св887688 0.2 1015890
11:00+26ссв777399 0.0 1014857
14:00+27ссв787083 0.0 1011829
17:00+27св67685 0.0 1011859
20:00+27св887316 0.0 10131041
8 марта, пн
пн823:00+27ссв9107967 0.2 1014866
02:00+26ссв9107777 0.3 1012860
05:00+26ссв9107699 0.0 1012969
08:00+26ссв10117897 0.1 1014964
11:00+27св9117891 0.4 1014930
14:00+27ссв9117592 1.2 10111034
17:00+27св10127685 0.3 1011981
20:00+27ссв12137893 0.9 10131000